Regional Weather Roundup
Issued by NWS

Home | Current Version | Previous Version | Graphics & Text | Print | Product List | Glossary On
Versions: 1 2 3 4 5 6 7 8 9 10 11 12 13 14 15 16 17 18 19 20 21 22 23 24 25 26 27 28 29 30 31 32 33 34 35 36 37 38 39 40 41 42 43 44 45 46 47 48 49 50
000
ASUS43 KDMX 031107
RWRIA

WEATHER ROUNDUP FOR IOWA
NATIONAL WEATHER SERVICE DES MOINES IA
600 AM CDT WED JUN 03 2015

NOTE: "FAIR" INDICATES FEW OR NO CLOUDS BELOW 12,000 FEET WITH NO
SIGNIFICANT WEATHER AND/OR OBSTRUCTIONS TO VISIBILITY.

* - THESE STATIONS ARE NOT NWS STATIONS...THUS NOT UNDER NWS
QUALITY CONTROL.  THEY ALSO DO NOT REPORT WEATHER SUCH
AS PRECIPITATION OR FOG.

IAZ001>003-012>014-020>022-031>034-043>046-031200-
   NORTHWEST IOWA

CITY           SKY/WX    TMP DP  RH WIND       PRES   REMARKS
CARROLL *      CLOUDY    63  57  82 S12G21    29.87S
CHEROKEE *     CLOUDY    63  61  94 SE6       29.82F
DENISON *      MOCLDY    63  63 100 S7        29.84F
LE MARS *      LGT RAIN  63  63 100 S9        29.79F
ORANGE CITY *  PTCLDY    61  57  88 E3        29.79F
SHELDON *      CLEAR     61  61 100 S8        29.80F
SIOUX CITY     LGT RAIN  63  60  90 S8        29.80F
SPENCER        CLOUDY    62  59  90 S9        29.84F
STORM LAKE *   MOCLDY    63  59  88 S12       29.86F
$$

IAZ055>058-069>071-079>083-090>094-031200-
   SOUTHWEST IOWA

CITY           SKY/WX    TMP DP  RH WIND       PRES   REMARKS
ATLANTIC *     CLOUDY    63  59  88 S10       29.90F
AUDUBON *      LGT RAIN  63  57  82 S13       29.90F
CLARINDA *     CLOUDY    64  61  88 W8G26     29.99R
COUNCIL BLFS * DRIZZLE   63  63 100 S3        29.90S
CRESTON *      CLOUDY    61  59  94 S14       29.91S
HARLAN  *      CLOUDY    63  63 100 S10       29.93R
LAMONI         MOCLDY    63  56  78 SE10      29.93S
RED OAK *      CLOUDY    64  61  88 E8        29.91F
SHENANDOAH *   LGT RAIN  64  63  94 E9        29.91F
$$

IAZ047>049-059>061-072>074-084-031200-
   CENTRAL IOWA

CITY           SKY/WX    TMP DP  RH WIND       PRES   REMARKS
AMES           CLOUDY    61  55  81 SE9       29.91F
ANKENY *       CLOUDY    61  57  88 SE10      29.92F
CHARITON *     CLOUDY    61  57  88 SE10      29.94S
DES MOINES     CLOUDY    62  55  77 SE9       29.92F
GRINNELL*      MOCLDY    59  55  88 SE9       29.98R
KNOXVILLE *    CLOUDY    61  55  82 SE9       29.94F
MARSHALLTOWN   MOCLDY    60  55  83 SE10      29.94S
PELLA *        MOCLDY    59  59 100 SE6       29.98R
PERRY *        CLOUDY    61  55  82 SE13      29.89S
$$

IAZ004>006-015-016-023>025-035-036-031200-
   NORTH CENTRAL IOWA

CITY           SKY/WX    TMP DP  RH WIND       PRES   REMARKS
ALGONA *       MOCLDY    63  57  82 S12G20    29.88S
CLARION *      CLOUDY    63  55  77 S18       29.89F
ESTHERVILLE    CLOUDY    61  56  83 S15       29.86S
FORT DODGE *   CLOUDY    63  54  72 S10G18    29.89S
MASON CITY     MOCLDY    62  56  80 S13       29.93F
FOREST CITY *  CLOUDY    61  54  77 SE13      29.90F
IOWA FALLS *   MOCLDY    61  55  82 SE12      29.93F
$$

IAZ007>011-017>019-026>030-037>042-050>054-066-031200-
   NORTHEAST IOWA

CITY           SKY/WX    TMP DP  RH WIND       PRES   REMARKS
CEDAR RAPIDS   PTCLDY    56  55  97 S5        29.99S
CHARLES CITY * CLOUDY    61  57  88 S13       29.96S
CLINTON *      PTCLDY    57  50  77 SE9       30.05S
DECORAH *      CLEAR     55  54  94 SE5       29.98R
DUBUQUE        CLEAR     54  50  86 S9        30.02S
MONTICELLO *   CLEAR     57  54  88 SE8       30.00S
OELWEIN *      MOCLDY    57  54  88 S9        29.99S
WATERLOO       CLOUDY    59  54  83 SE8       29.97R
$$

IAZ064-065-067-068-078-031200-
   EAST CENTRAL IOWA

CITY           SKY/WX    TMP DP  RH WIND       PRES   REMARKS
DAVENPORT      CLEAR     56  51  84 SE8       30.03S
IOWA CITY      PTCLDY    55  53  93 SE5       30.01S
MT. PLEASANT * PTCLDY    55  55 100 S7        30.01R FOG
MUSCATINE *    CLEAR     54  54 100 CALM      30.02S
QUAD CITIES    CLEAR     55  51  86 E3        30.02S
$$

IAZ062-063-075>077-085>089-095>099-031200-
   SOUTHEAST IOWA

CITY           SKY/WX    TMP DP  RH WIND       PRES   REMARKS
BURLINGTON     PTCLDY    54  54 100 S5        30.01R FOG
FAIRFIELD *    PTCLDY    55  54  94 SE7       30.00R
FORT MADISON * CLEAR     57  57 100 S3        30.02S FOG
KEOKUK *       CLEAR     57  57 100 S6        30.00F
OSKALOOSA *      N/A     55  54  94 SE7       29.99R
CENTERVILLE *  MOCLDY    57  57 100 SE9       29.98S
OTTUMWA        MOCLDY    58  56  93 S8        29.98R
WASHINGTON *   CLEAR     55  54  94 S6        30.02R
$$

ABBREVIATIONS USED IN REMARKS
   TC - TEMPERATURES IN CELSIUS
  WCI - WIND CHILL INDEX
   HX - HEAT INDEX
  VSB - VISIBILITY
$$




USA.gov is the U.S. government's official web portal to all federal, state and local government web resources and services.